Weather History for Perryton, TX

Change the Weather History Date:

Wednesday, November 6, 2013

  Actual Average Record
Temperature  
Mean Temperature 43 °F -  
Max Temperature 54 °F 60 °F 80 °F (1980)
Min Temperature 32 °F 31 °F 13 °F (1993)
Degree Days  
Heating Degree Days 22    
Moisture  
Dew Point 29 °F    
Average Humidity 68    
Maximum Humidity 95    
Minimum Humidity 29    
Precipitation  
Precipitation 0.00 in - - ()
Sea Level Pressure  
Sea Level Pressure 30.28 in    
Wind  
Wind Speed 10 mph (West)    
Max Wind Speed 14 mph    
Max Gust Speed -    
Visibility 10 miles    
Events      
Averages and records for this station are not official NWS values.
T = Trace of Precipitation, MM = Missing Value Source: NWS Daily Summary

Daily Weather History Graph

Daily Weather History Graph

Search for Another Location

Airport:

Trip Planner

Search our weather history database for the weather conditions in past years. The results will help you decide how hot, cold, wet, or windy it might be!

Date:

Astronomy

Nov. 06, 2013 Rise Set
Actual Time 7:11 AM CST 5:41 PM CST
Civil Twilight 6:44 AM CST 6:08 PM CST
Nautical Twilight 6:13 AM CST 6:38 PM CST
Astronomical Twilight 5:43 AM CST 7:09 PM CST
Moon 10:25 AM CST (11/6) 8:49 PM CST (11/6)
Length of Visible Light 11h 23m
Length of Day
10h 29m
Waxing Crescent, 14% of the Moon is Illuminated
Nov 6
Waxing Crescent
Nov 9
First Quarter
Nov 17
Full
Nov 25
Last Quarter
Dec 2
New

Hourly Weather History & Observations

Time (CST) Temp. Windchill Dew Point Humidity Pressure Visibility Wind Dir Wind Speed Gust Speed Precip Events Conditions
12:35 AM 36.5 °F 27.8 °F 33.1 °F 87% 30.18 in 10.0 mi NNW 13.8 mph - N/A   Clear
12:55 AM 36.3 °F 28.9 °F 32.7 °F 87% 30.19 in 10.0 mi North 10.4 mph - N/A   Scattered Clouds
1:15 AM 36.0 °F 27.1 °F 32.9 °F 89% 30.19 in 10.0 mi NNW 13.8 mph - N/A   Scattered Clouds
1:35 AM 36.0 °F 28.5 °F 32.5 °F 87% 30.18 in 10.0 mi NNW 10.4 mph - N/A   Mostly Cloudy
1:55 AM 35.8 °F 27.3 °F 32.0 °F 86% 30.18 in 10.0 mi NNW 12.7 mph - N/A   Scattered Clouds
2:15 AM 34.9 °F 26.6 °F 32.0 °F 89% 30.19 in 10.0 mi NNW 11.5 mph - N/A   Scattered Clouds
2:35 AM 34.2 °F 25.7 °F 32.0 °F 92% 30.20 in 10.0 mi NNW 11.5 mph - N/A   Scattered Clouds
2:55 AM 33.8 °F 26.4 °F 31.8 °F 92% 30.20 in 10.0 mi NW 9.2 mph - N/A   Scattered Clouds
3:15 AM 33.6 °F 24.6 °F 32.0 °F 94% 30.20 in - NNW 12.7 mph - N/A   Unknown
3:35 AM 33.3 °F 23.7 °F 31.5 °F 93% 30.21 in - NW 13.8 mph - N/A   Unknown
3:55 AM 32.9 °F 25.3 °F 31.1 °F 93% 30.21 in - NW 9.2 mph - N/A   Unknown
4:15 AM 32.4 °F 25.3 °F 31.1 °F 95% 30.22 in - NW 8.1 mph - N/A   Unknown
4:35 AM 32.4 °F 24.6 °F 31.1 °F 95% 30.22 in - NW 9.2 mph - N/A   Unknown
4:55 AM 32.4 °F 23.5 °F 30.9 °F 94% 30.23 in - NW 11.5 mph - N/A   Unknown
5:15 AM 32.2 °F 23.8 °F 30.6 °F 94% 30.23 in - NW 10.4 mph - N/A   Unknown
5:35 AM 32.0 °F 23.6 °F 30.2 °F 93% 30.24 in - NW 10.4 mph - N/A   Unknown
5:55 AM 32.0 °F 23.6 °F 30.0 °F 92% 30.24 in - NW 10.4 mph - N/A   Unknown
6:15 AM 32.0 °F 24.2 °F 29.8 °F 92% 30.24 in - NW 9.2 mph - N/A   Unknown
6:35 AM 32.0 °F 24.2 °F 29.3 °F 90% 30.25 in - WNW 9.2 mph - N/A   Unknown
6:55 AM 32.0 °F 23.6 °F 29.3 °F 90% 30.26 in - WNW 10.4 mph - N/A   Unknown
7:15 AM 32.0 °F 23.6 °F 29.3 °F 90% 30.27 in - WNW 10.4 mph - N/A   Unknown
7:35 AM 32.0 °F 24.2 °F 29.1 °F 89% 30.28 in - WNW 9.2 mph - N/A   Unknown
7:55 AM 32.4 °F 24.6 °F 29.5 °F 89% 30.28 in - WNW 9.2 mph - N/A   Unknown
8:15 AM 33.3 °F 24.6 °F 29.8 °F 87% 30.30 in - WNW 11.5 mph - N/A   Unknown
8:35 AM 34.7 °F 27.5 °F 30.2 °F 84% 30.30 in - WNW 9.2 mph - N/A   Clear
8:55 AM 35.8 °F 29.4 °F 30.9 °F 82% 30.30 in - WNW 8.1 mph - N/A   Clear
9:15 AM 37.6 °F 30.5 °F 31.3 °F 78% 30.31 in 10.0 mi WNW 10.4 mph - N/A   Clear
9:35 AM 38.8 °F 32.6 °F 30.9 °F 73% 30.31 in 10.0 mi WNW 9.2 mph - N/A   Clear
9:55 AM 40.1 °F 33.6 °F 31.1 °F 70% 30.32 in 10.0 mi WNW 10.4 mph - N/A   Clear
10:15 AM 41.7 °F 36.1 °F 30.7 °F 65% 30.32 in 10.0 mi WNW 9.2 mph - N/A   Clear
10:35 AM 43.3 °F 38.6 °F 30.9 °F 62% 30.31 in 10.0 mi NW 8.1 mph - N/A   Clear
10:55 AM 44.4 °F 40.0 °F 29.3 °F 55% 30.31 in 10.0 mi NW 8.1 mph - N/A   Clear
11:15 AM 45.9 °F 42.9 °F 29.1 °F 52% 30.32 in 10.0 mi WNW 5.8 mph - N/A   Clear
11:35 AM 46.8 °F - 27.1 °F 46% 30.31 in 10.0 mi WNW 6.9 mph - N/A   Clear
11:55 AM 48.2 °F - 26.4 °F 43% 30.31 in 10.0 mi WNW 5.8 mph - N/A   Clear
12:15 PM 49.3 °F - 25.9 °F 40% 30.31 in 10.0 mi WNW 5.8 mph - N/A   Clear
12:35 PM 49.6 °F - 25.0 °F 38% 30.29 in 10.0 mi WNW 5.8 mph - N/A   Clear
12:55 PM 50.7 °F - 24.3 °F 36% 30.29 in 10.0 mi NW 8.1 mph - N/A   Clear
1:15 PM 51.4 °F - 22.5 °F 32% 30.29 in 10.0 mi WNW 10.4 mph - N/A   Clear
1:35 PM 51.8 °F - 23.2 °F 33% 30.28 in 10.0 mi WNW 6.9 mph - N/A   Clear
1:55 PM 52.2 °F - 23.2 °F 32% 30.27 in 10.0 mi WNW 8.1 mph - N/A   Clear
2:15 PM 52.5 °F - 23.5 °F 32% 30.28 in 10.0 mi West 6.9 mph - N/A   Clear
2:35 PM 52.9 °F - 22.8 °F 31% 30.28 in 10.0 mi West 6.9 mph - N/A   Clear
2:55 PM 53.8 °F - 23.4 °F 31% 30.27 in 10.0 mi West 8.1 mph - N/A   Clear
3:15 PM 54.1 °F - 23.0 °F 30% 30.27 in 10.0 mi WSW 9.2 mph - N/A   Clear
3:35 PM 54.0 °F - 22.6 °F 30% 30.27 in 10.0 mi West 9.2 mph - N/A   Clear
3:55 PM 54.1 °F - 22.5 °F 29% 30.27 in 10.0 mi WSW 8.1 mph - N/A   Clear
4:15 PM 54.0 °F - 22.3 °F 29% 30.27 in 10.0 mi WNW 5.8 mph - N/A   Clear
4:35 PM 53.8 °F - 23.2 °F 30% 30.27 in 10.0 mi SW 6.9 mph - N/A   Clear
4:55 PM 53.2 °F - 24.6 °F 33% 30.28 in 10.0 mi WSW 5.8 mph - N/A   Clear
5:15 PM 51.8 °F - 26.4 °F 37% 30.28 in 10.0 mi SW 4.6 mph - N/A   Clear
5:35 PM 49.3 °F - 30.6 °F 49% 30.28 in 10.0 mi SW 4.6 mph - N/A   Clear
5:55 PM 47.5 °F - 29.3 °F 49% 30.28 in 10.0 mi SSW 4.6 mph - N/A   Clear
6:15 PM 46.0 °F 43.9 °F 29.8 °F 53% 30.29 in 10.0 mi South 4.6 mph - N/A   Clear
6:35 PM 41.5 °F 37.1 °F 29.5 °F 62% 30.29 in 10.0 mi South 6.9 mph - N/A   Clear
6:55 PM 40.5 °F 35.1 °F 30.2 °F 67% 30.29 in 10.0 mi SSE 8.1 mph - N/A   Clear
7:15 PM 38.8 °F 33.2 °F 30.6 °F 72% 30.29 in 10.0 mi SSE 8.1 mph - N/A   Clear
7:35 PM 39.2 °F 33.6 °F 30.0 °F 70% 30.29 in 10.0 mi SSE 8.1 mph - N/A   Clear
7:55 PM 39.2 °F 33.6 °F 29.3 °F 68% 30.30 in 10.0 mi SSE 8.1 mph - N/A   Clear
8:15 PM 37.8 °F 31.8 °F 30.0 °F 74% 30.31 in 10.0 mi SSE 8.1 mph - N/A   Clear
8:35 PM 36.5 °F 30.3 °F 30.0 °F 77% 30.31 in 10.0 mi South 8.1 mph - N/A   Clear
8:55 PM 36.9 °F 30.7 °F 29.8 °F 76% 30.31 in 10.0 mi South 8.1 mph - N/A   Clear
9:15 PM 36.3 °F 30.1 °F 29.7 °F 77% 30.32 in 10.0 mi South 8.1 mph - N/A   Clear
9:35 PM 35.8 °F 30.9 °F 29.1 °F 77% 30.33 in 10.0 mi South 5.8 mph - N/A   Clear
9:55 PM 36.0 °F 33.3 °F 28.9 °F 76% 30.34 in 10.0 mi South 3.5 mph - N/A   Clear
10:15 PM 36.5 °F 31.8 °F 28.2 °F 72% 30.35 in 10.0 mi SSE 5.8 mph - N/A   Clear
10:35 PM 36.5 °F 31.0 °F 28.2 °F 72% 30.35 in 10.0 mi SSE 6.9 mph - N/A   Clear
10:55 PM 35.2 °F 29.5 °F 27.5 °F 73% 30.35 in 10.0 mi South 6.9 mph - N/A   Clear
11:15 PM 35.1 °F 30.1 °F 28.2 °F 76% 30.35 in 10.0 mi South 5.8 mph - N/A   Clear
11:35 PM 33.8 °F 28.6 °F 28.0 °F 79% 30.35 in 10.0 mi South 5.8 mph - N/A   Clear
11:55 PM 34.7 °F 28.8 °F 28.0 °F 77% 30.36 in 10.0 mi South 6.9 mph - N/A   Clear